Regional Weather Roundup
Issued by NWS

Home | Current Version | Previous Version | Text Only | Print | Product List | Glossary Off
Versions: 1 2 3 4 5 6 7 8 9 10 11 12 13 14 15 16 17 18 19 20 21 22 23 24 25 26 27 28 29 30 31 32 33 34 35 36 37 38 39 40 41 42 43 44 45 46 47 48 49 50

230
ASUS45 KCYS 170510
RWRWY

WYOMING REGIONAL WEATHER ROUNDUP
NATIONAL WEATHER SERVICE CHEYENNE WY
1000 PM MST MON JAN 16 2017

NOTE:  "FAIR" INDICATES FEW OR NO CLOUDS BELOW 12,000 FEET
WITH NO SIGNIFICANT WEATHER AND/OR OBSTRUCTIONS TO VISIBILITY.

WYZ001-170600-
YELLOWSTONE NATIONAL PARK

CITY           SKY/WX    TMP DP  RH WIND       PRES   REMARKS
LK YELLOWSTONE   N/A     -8 -11  86 CALM      30.17F
W YELLOWSTONE  NOT AVBL

$$
WYZ002>013-054>058-071-098>099-170600-
NORTHERN WYOMING

CITY           SKY/WX    TMP DP  RH WIND       PRES   REMARKS
JACKSON        FAIR     -11 -15  84 NE8       30.23S WCI -28
CODY           NOT AVBL
GREYBULL       FAIR     -13 -18  78 W3        30.14S
WORLAND        FAIR      -3  -5  90 CALM      30.11S
SHERIDAN       FAIR       8   2  76 S9        30.03F WCI  -5
BUFFALO        FAIR      23   6  48 SW6       30.02S WCI  16
GILLETTE       FAIR      18   8  65 SE6       30.05F WCI  10
HULETT         FAIR      14   7  73 MISG      30.06F
NEWCASTLE      FAIR      14   9  79 NW8       30.09R WCI   3

$$
WYZ014>020-022>026-101>103-170600-
CENTRAL WYOMING

CITY           SKY/WX    TMP DP  RH WIND       PRES   REMARKS
BIG PINEY      FAIR     -19 -22  86 CALM      30.17S
PINEDALE       FAIR     -20 -27  69 NW5       30.17S WCI -33
DUBOIS         NOT AVBL
LANDER         FAIR       8   3  80 NW6       30.09F WCI  -2
RIVERTON       FAIR       0  -5  79 NW3       30.11S
CASPER         FAIR      22   8  55 SW16      30.06F WCI   8
DOUGLAS        FAIR      14   8  77 CALM      30.08F

$$
WYZ021-027>030-104>119-170600-
SOUTHERN WYOMING

CITY           SKY/WX    TMP DP  RH WIND       PRES   REMARKS
EVANSTON       FAIR       7   2  80 CALM      30.17R
ROCK SPRINGS   FAIR       0  -5  79 S5        30.16F HAZE    WCI -10
RAWLINS        FAIR      -2  -9  72 CALM      30.14R
LARAMIE        FOG        9   8  96 S7        30.07F VSB 1/4 WCI  -2
CHEYENNE       FAIR      18  11  74 NW6       30.07F WCI  10
TORRINGTON     FAIR      25  14  63 NW8       30.09F WCI  16

$$




USA.gov is the U.S. government's official web portal to all federal, state and local government web resources and services.